This demonstration page uses our WeatherBlox Daily Observations layout. Learn more.

Left ArrowRight Arrow

34.16533, -84.80231

Hourly Observations for August 23, 2018

Temp ( °F °C ) Dew Point ( °F °C ) Humidity (%) Winds ( mph kmh ) Pressure ( in mb ) Visibility ( mi km ) Precip ( " mm )
12:53 am 00:53 Clear 67 19.4 67 19.4 100 100 Calm 30.03 1017 8 13 0.00 0.00
1:53 am 01:53 Clear 67 19.4 66 18.9 97 97 Calm 30.03 1017 8 13 0.00 0.00
2:53 am 02:53 Clear 66 18.9 66 18.9 100 100 Calm 30.02 1017 7 11 0.00 0.00
3:53 am 03:53 Clear 66 18.9 66 18.9 100 100 Calm 30.01 1016 7 11 0.00 0.00
4:53 am 04:53 Clear 66 18.9 66 18.9 100 100 VRB 5 7 30.01 1016 7 11 0.00 0.00
5:53 am 05:53 Clear with Mist and Fog 65 18.3 65 18.3 100 100 Calm 30.03 1017 6 10 0.00 0.00
6:24 am 06:24 Mostly Clear with Mist and Fog 65 18.3 65 18.3 100 100 Calm 30.03 1017 5 8 0.00 0.00
6:40 am 06:40 Mostly Cloudy with Mist and Fog 64 17.8 64 17.8 100 100 Calm 30.06 1018 5 8 0.00 0.00
6:53 am 06:53 Mostly Cloudy with Mist and Fog 65 18.3 65 18.3 100 100 Calm 30.04 1017 5 8 0.00 0.00
7:53 am 07:53 Cloudy with Mist and Fog 66 18.9 66 18.9 100 100 Calm 30.07 1018 5 8 0.00 0.00
8:32 am 08:32 Cloudy with Mist and Fog 66 18.9 66 18.9 100 100 N 7 11 30.09 1019 4 6 0.00 0.00
8:53 am 08:53 Cloudy with Mist and Fog 66 18.9 66 18.9 100 100 NNW 5 7 30.09 1019 5 8 0.00 0.00
9:17 am 09:17 Mostly Cloudy with Mist and Fog 68 20 66 18.9 93 93 N 5 7 30.09 1019 6 10 0.00 0.00
9:32 am 09:32 Partly Cloudy with Mist and Fog 70 21.1 66 18.9 87 87 N 5 7 30.09 1019 6 10 0.00 0.00
9:53 am 09:53 Sunny 71 21.7 66 18.9 84 84 N 6 9 30.09 1019 7 11 0.00 0.00
10:53 am 10:53 Sunny 76 24.4 63 17.2 64 64 N 9 15 30.09 1019 9 14 0.00 0.00
11:53 am 11:53 Sunny 79 26.1 63 17.2 58 58 VRB 5 7 30.09 1019 9 14 0.00 0.00
12:53 pm 12:53 Sunny 81 27.2 61 16.1 51 51 N 5 7 30.07 1018 9 14 0.00 0.00
1:53 pm 13:53 Sunny 83 28.3 61 16.1 48 48 ENE 3 6 30.05 1018 9 14 0.00 0.00
2:53 pm 14:53 Mostly Cloudy 81 27.2 60 15.6 49 49 Calm 30.04 1017 9 14 0.00 0.00
3:53 pm 15:53 Cloudy 84 28.9 61 16.1 46 46 N 3 6 30.02 1017 9 14 0.00 0.00
4:53 pm 16:53 Mostly Cloudy 85 29.4 59 15 42 42 Calm 30.01 1016 9 14 0.00 0.00
5:53 pm 17:53 Sunny 84 28.9 61 16.1 46 46 NNW 5 7 30.01 1016 9 14 0.00 0.00
6:53 pm 18:53 Sunny 80 26.7 60 15.6 51 51 VRB 3 6 30.02 1017 10 16 0.00 0.00
7:53 pm 19:53 Sunny 75 23.9 63 17.2 66 66 Calm 30.03 1017 9 14 0.00 0.00
8:53 pm 20:53 Clear 69 20.6 64 17.8 84 84 Calm 30.05 1018 10 16 0.00 0.00
9:53 pm 21:53 Partly Cloudy 66 18.9 63 17.2 90 90 Calm 30.07 1018 10 16 0.00 0.00
10:53 pm 22:53 Mostly Cloudy 65 18.3 64 17.8 97 97 Calm 30.08 1019 10 16 0.00 0.00
11:53 pm 23:53 Clear 63 17.2 63 17.2 100 100 Calm 30.08 1019 10 16 0.00 0.00

Powered by AerisWeather